1999 YC   

Epoch 1999 Dec. 28.0 TT = JDT 2451540.5                 Nakano

M 331.63047              (2000.0)            P               Q

n   0.58066781     Peri.  156.29181     -0.67469336     +0.48060071

a   1.4229322      Node    64.88013     -0.73652397     -0.38883687

e   0.8315649      Incl.   38.22164     -0.04817994     -0.78602090

P   1.70           H   16.9           G   0.15           U   *

Residuals in seconds of arc 

991217 704  0.3+  0.2+    991219 046  0.4-  0.2+    991221 670  0.3-  0.3+  

991217 704  0.1+  0.0     991219 046  2.1+  1.2-    991221 118  1.0-  0.2+  

991217 704  2.0-  0.2+    991219 046  0.9+  0.2+    991221 118  0.7-  0.0   

991217 704  0.1+  0.2+    991219 046  1.9-  0.3-    991222 402  1.3-  0.2+  

991217 704  0.5+  0.2+    991219 046  0.4+  0.3-    991222 402  1.0-  0.6-  

991218 704  0.4-  0.3-    991219 557  0.0   0.5+    991222 402  0.5+  0.1+  

991218 704  0.2+  0.8+    991219 557  0.1-  0.7+    991222 118  0.9-  0.2+  

991218 670  0.3+  0.2+    991219 557  0.1-  0.4-    991222 118  0.7-  0.3+  

991218 704  0.2-  0.3-    991220 704  0.4+  0.0     991222 118  0.8-  0.2-  

991218 704  0.5+  0.3-    991220 704  0.1-  0.2+    991224 670  0.8+  1.1+  

991218 670  0.1-  0.3-    991220 704  0.2+  0.3-    991224 670  1.8+  0.2+  

991218 670  0.4-  0.5+    991220 704  0.1-  0.1-    991224 670  2.0+  2.0+  

991218 670  0.5+  0.1-    991220 704  0.1-  0.6-    991224 402  1.5-  0.1-  

991218 704  0.3-  0.2+    991220 704  0.2+  0.2+    991224 402  1.2-  1.2-  

991218 704  0.1-  0.4-    991220 704  0.9+  0.6-    991224 402  0.8+  0.9-  

991218 704  0.0   0.6+    991220 704  0.6-  0.0     991229 360  0.0   0.0   

991218 704  0.1-  0.0     991220 670  0.9-  0.9-    991229 360  0.0   0.1-  

991219 900  0.1-  0.3-    991220 670  2.0+  0.8+    991229 360  0.0   0.0   

991219 900  0.1+  0.0     991221 670  0.1-  0.3+                            

991219 046  1.6+  0.4-    991221 670  0.0   0.4-                            

 

NAKANO

         **** Don't distribute anyone except personal use only ****

                (C) Copyright 1999 OAA/ComputingSection

write mail from CFAD0::NAKANO on 1999-12-31 22:22:03(JST).

 



1999 YC   

Epoch 1999 Dec. 28.0 TT = JDT 2451540.5                 Nakano

M 332.35322              (2000.0)            P               Q

n   0.56775731     Peri.  156.14421     -0.67061768     +0.47381341

a   1.4444224      Node    65.05822     -0.74052206     -0.38240458

e   0.8354887      Incl.   39.01115     -0.04357771     -0.79326388

P   1.74           H   16.8           G   0.15           U   *

Residuals in seconds of arc 

991217 704  0.4+  0.1+    991219 046  1.6+  0.4-    991221 670  0.0   0.3+  

991217 704  0.2+  0.1-    991219 046  0.4-  0.2+    991221 670  0.0   0.3-  

991217 704  2.0-  0.1+    991219 046  2.1+  1.2-    991221 670  0.4-  0.4+  

991217 704  0.1+  0.1+    991219 046  0.9+  0.3+    991221 118  0.8-  0.2+  

991217 704  0.5+  0.1+    991219 046  1.9-  0.3-    991221 118  0.6-  0.0   

991218 704  0.4-  0.3-    991219 046  0.4+  0.3-    991222 402  1.2-  0.3+  

991218 704  0.2+  0.8+    991219 557  0.0   0.5+    991222 402  0.9-  0.6-  

991218 670  0.3+  0.2+    991219 557  0.1-  0.7+    991222 402  0.6+  0.1+  

991218 704  0.2-  0.3-    991219 557  0.1-  0.4-    991222 118  0.8-  0.2+  

991218 704  0.4+  0.4-    991220 704  0.5+  0.1+    991222 118  0.7-  0.2+  

991218 670  0.1-  0.3-    991220 704  0.0   0.3+    991222 118  0.7-  0.3-  

991218 670  0.4-  0.4+    991220 704  0.3+  0.2-    991224 670  0.8+  1.0+  

991218 670  0.4+  0.1-    991220 704  0.1-  0.0     991224 670  1.7+  0.1+  

991218 704  0.4-  0.2+    991220 704  0.1-  0.5-    991224 670  1.9+  1.9+  

991218 704  0.2-  0.4-    991220 704  0.2+  0.2+    991224 402  1.6-  0.3-  

991218 704  0.1-  0.6+    991220 704  0.9+  0.5-    991224 402  1.2-  1.3-  

991218 704  0.1-  0.1-    991220 704  0.6-  0.1+    991224 402  0.8+  1.1-  

991219 900  0.1-  0.3-    991220 670  0.9-  0.9-                            

991219 900  0.0   0.0     991220 670  1.9+  0.8+                            

 

NAKANO

         **** Don't distribute anyone except personal use only ****

                (C) Copyright 1999 OAA/ComputingSection

write mail from CFAD0::NAKANO on 1999-12-25 22:56:15(JST).

 



 1999 YC   

Epoch 1999 Dec. 28.0 TT = JDT 2451540.5                 Nakano

M 330.33322              (2000.0)            P               Q

n   0.60350635     Peri.  156.54826     -0.68220805     +0.49234548

a   1.3868031      Node    64.53798     -0.72898294     -0.40103294

e   0.8242686      Incl.   36.77651     -0.05635655     -0.77250794

P   1.63           H   16.8           G   0.15           U   *

Residuals in seconds of arc 

991217 704  0.5+  0.3+    991218 704  0.1+  0.5+    991220 704  0.0   0.3-  

991217 704  0.4+  0.1+    991218 704  0.0   0.1-    991220 704  0.3-  0.1-  

991217 704  1.8-  0.3+    991219 900  0.2-  0.4-    991220 704  0.3-  0.7-  

991217 704  0.4+  0.2+    991219 900  0.0   0.1-    991220 704  0.0   0.1+  

991217 704  0.8+  0.3+    991219 046  1.4+  0.3-    991220 704  0.7+  0.6-  

991218 704  0.5-  0.3-    991219 046  0.7-  0.3+    991220 704  0.8-  0.0   

991218 704  0.1+  0.7+    991219 046  1.9+  1.2-    991220 670  1.0-  1.0-  

991218 670  0.2+  0.2+    991219 046  0.7+  0.3+    991220 670  1.9+  0.7+  

991218 704  0.2-  0.4-    991219 046  2.1-  0.3-    991221 670  0.1+  0.4+  

991218 704  0.4+  0.4-    991219 046  0.2+  0.2-    991221 670  0.2+  0.2-  

991218 670  0.2-  0.4-    991219 557  0.1-  0.6+    991221 670  0.1+  0.5+  

991218 670  0.5-  0.4+    991219 557  0.2-  0.8+    991221 118  0.5-  0.7+  

991218 670  0.4+  0.1-    991219 557  0.2-  0.4-    991221 118  0.2-  0.5+  

991218 704  0.3-  0.1+    991220 704  0.2+  0.0                             

991218 704  0.1-  0.5-    991220 704  0.3-  0.1+                            

 

NAKANO

         **** Don't distribute anyone except personal use only ****

                (C) Copyright 1999 OAA/ComputingSection

write mail from CFAD0::NAKANO on 1999-12-22 23:58:49(JST).

 





–ß‚è‚Ü‚·B